FENGYUN 2G

Last updated on Wed Sep 17 2025 00:02:22 GMT+0000 (Coordinated Universal Time)

1 40367U 14090A 25259.64627505 -.00000320 00000+0 00000+0 0 9996 2 40367 4.9434 76.1328 0003581 177.8275 73.9592 1.00278931 39252
UTC large
Height (km)
Speed (km/s)
/
Latitude / Longitude
Inclination (degrees)
Orbital Period (minutes)
Azimuth
Elevation
Range (km)
Doppler Factor

Next 0 passes for location: London (51.5072 / 0.1276)

Sorry there are no passes over London.